Middletown, PA

1:21 PM EST on February 20, 2017 (GMT -0500)
Harrisburg International

Weather History for KMDT - November, 2014

Change the Weather History Date:

Wednesday, November 19, 2014

  Actual Average Record
Temperature  
Mean Temperature 26 °F 43 °F  
Max Temperature 31 °F 52 °F 72 °F (1928)
Min Temperature 20 °F 34 °F 18 °F (1924)
Degree Days  
Heating Degree Days 39 22  
Month to date heating degree days 434 357  
Since 1 July heating degree days 713 769  
Cooling Degree Days 0 0  
Month to date cooling degree days 0 0  
Year to date cooling degree days 1050 1002  
Moisture  
Dew Point 8 °F    
Average Humidity 48    
Maximum Humidity 57    
Minimum Humidity 39    
Precipitation  
Precipitation 0.00 in 0.11 in 1.55 in (1932)
Month to date precipitation 1.43 1.94  
Year to date precipitation 39.07 36.22  
Snow  
Snow 0.00 in 0.00 in 4.60 in (1955)
Month to date snowfall T 0.1  
Since 1 July snowfall T 0.1  
Since 1 September snowfall T 0.1  
Snow Depth 0.00 in    
Sea Level Pressure  
Sea Level Pressure 30.19 in    
Wind  
Wind Speed 9 mph (SW)    
Max Wind Speed 18 mph    
Max Gust Speed 24 mph    
Visibility 10 miles    
Events      
T = Trace of Precipitation, MM = Missing Value Source: NWS Daily Summary

Daily Weather History Graph

Daily Weather History Graph

Search for Another Location

Airport or City:

Trip Planner

Search our weather history database for the weather conditions in past years. The results will help you decide how hot, cold, wet, or windy it might be!

Date:

Astronomy

Nov. 19, 2014 Rise Set
Actual Time 6:57 AM EST 4:47 PM EST
Civil Twilight 6:27 AM EST 5:16 PM EST
Nautical Twilight 5:54 AM EST 5:49 PM EST
Astronomical Twilight 5:22 AM EST 6:22 PM EST
Moon 3:50 AM EST (11/19) 3:14 PM EST (11/19)
Length of Visible Light 10h 48m
Length of Day
9h 50m
Waning Crescent, 9% of the Moon is Illuminated
Nov 19
Waning Crescent
Nov 22
New
Nov 29
First Quarter
Dec 6
Full
Dec 14
Last Quarter

Hourly Weather History & Observations

Time (EST) Temp. Windchill Dew Point Humidity Pressure Visibility Wind Dir Wind Speed Gust Speed Precip Events Conditions
12:56 AM 21.9 °F 9.2 °F 8.1 °F 55% 30.22 in 10.0 mi West 13.8 mph 23.0 mph N/A   Partly Cloudy
1:56 AM 21.9 °F 8.7 °F 6.1 °F 51% 30.23 in 10.0 mi West 15.0 mph - N/A   Partly Cloudy
2:56 AM 21.0 °F 9.9 °F 6.1 °F 53% 30.24 in 10.0 mi WNW 10.4 mph - N/A   Partly Cloudy
3:56 AM 21.0 °F 10.6 °F 6.1 °F 53% 30.25 in 10.0 mi West 9.2 mph - N/A   Partly Cloudy
4:56 AM 21.0 °F 11.4 °F 6.1 °F 53% 30.27 in 10.0 mi West 8.1 mph - N/A   Partly Cloudy
5:56 AM 19.9 °F 12.1 °F 5.0 °F 52% 30.28 in 10.0 mi Variable 5.8 mph - N/A   Partly Cloudy
6:56 AM 19.9 °F 7.9 °F 6.1 °F 55% 30.30 in 10.0 mi West 11.5 mph - N/A   Clear
7:56 AM 21.0 °F 11.4 °F 5.0 °F 50% 30.33 in 10.0 mi West 8.1 mph - N/A   Clear
8:56 AM 23.0 °F 10.6 °F 6.1 °F 48% 30.33 in 10.0 mi WNW 13.8 mph 20.7 mph N/A   Clear
9:56 AM 25.0 °F 13.6 °F 7.0 °F 46% 30.32 in 10.0 mi West 12.7 mph - N/A   Clear
10:56 AM 27.0 °F 18.7 °F 7.0 °F 43% 30.30 in 10.0 mi WNW 8.1 mph - N/A   Clear
11:56 AM 27.0 °F 18.0 °F 7.0 °F 43% 30.27 in 10.0 mi West 9.2 mph - N/A   Scattered Clouds
12:56 PM 28.9 °F 21.9 °F 8.1 °F 41% 30.24 in 10.0 mi Variable 6.9 mph - N/A   Scattered Clouds
1:56 PM 30.0 °F 20.0 °F 9.0 °F 41% 30.20 in 10.0 mi SW 12.7 mph 17.3 mph N/A   Scattered Clouds
2:56 PM 30.0 °F 20.0 °F 9.0 °F 41% 30.17 in 10.0 mi SW 12.7 mph 19.6 mph N/A   Partly Cloudy
3:56 PM 28.9 °F 20.4 °F 9.0 °F 43% 30.14 in 10.0 mi South 9.2 mph - N/A   Scattered Clouds
4:56 PM 28.9 °F 21.1 °F 9.0 °F 43% 30.12 in 10.0 mi South 8.1 mph - N/A   Overcast
5:56 PM 30.0 °F 21.7 °F 10.0 °F 43% 30.10 in 10.0 mi South 9.2 mph - N/A   Mostly Cloudy
6:56 PM 28.9 °F 20.4 °F 10.0 °F 45% 30.09 in 10.0 mi SSE 9.2 mph - N/A   Scattered Clouds
7:56 PM 28.0 °F 21.7 °F 10.0 °F 47% 30.08 in 10.0 mi SE 5.8 mph - N/A   Scattered Clouds
8:56 PM 27.0 °F 21.6 °F 12.9 °F 56% 30.07 in 10.0 mi ESE 4.6 mph - N/A   Mostly Cloudy
9:56 PM 30.0 °F 24.1 °F 12.9 °F 49% 30.04 in 10.0 mi SSE 5.8 mph - N/A   Overcast
10:56 PM 28.9 °F 22.8 °F 12.9 °F 51% 30.02 in 10.0 mi SSE 5.8 mph - N/A   Scattered Clouds
11:56 PM 30.0 °F 26.5 °F 12.9 °F 49% 30.00 in 10.0 mi ESE 3.5 mph - N/A   Overcast